[[{"header":{"parameterUnit":"m.s-1","parameterCategory":1,"la1":30.2991,"la2":30.254,"lo1":-89.0895,"lo2":-89.0444,"dy":0.0017,"dx":0.0017,"nx":28,"ny":28,"refTime":"2024-12-02T03:00:00:Z","depth":0,"parameterNumber":2,"parameterNumberName":"U-component_of_WINDS"},"data":[0,0,0,0,0,0,0,0,0,0,0,0,0,0,0,0,0,0,0,0,0,0,0,0,0,0,0,0,0,0,0,0,0,0,0,0,0,0,0,0,0,0,0,0,0,0,0,0,0,0,0,0,0,0,0,0,0,0,-2.5882,-2.5882,0,-2.5911,-2.5911,-2.5912,-2.5795,-2.5792,-2.5788,-2.5785,-2.5816,-2.582,-2.5824,0,0,0,0,0,0,0,0,0,0,0,0,0,-2.5726,-2.573,-2.5882,-2.5882,-2.5883,-2.5911,-2.5911,-2.5912,-2.5796,-2.5792,-2.5787,-2.5783,-2.5815,-2.582,-2.5824,0,0,0,0,0,0,0,0,0,0,0,0,0,-2.5779,-2.5731,-2.5882,-2.5828,-2.5824,-2.5911,-2.5911,-2.5912,-2.5797,-2.5791,-2.5786,-2.5781,-2.5813,-2.5819,-2.5825,-2.5966,0,0,-2.5844,-2.5846,0,0,0,0,0,0,0,0,-2.5776,-2.5784,-2.5836,-2.5832,-2.5827,-2.5844,-2.5868,-2.593,-2.5798,-2.5807,-2.5785,-2.5779,-2.583,-2.5834,-2.5851,-2.5967,-2.5969,-2.5844,-2.5848,-2.585,-2.5852,0,0,0,0,0,0,0,-2.5772,-2.5782,-2.5893,-2.5836,-2.5831,-2.5803,-2.5804,-2.5879,-2.5847,-2.5806,-2.5797,-2.5802,-2.5826,-2.5845,-2.5851,-2.5969,-2.5844,-2.5849,-2.5853,-2.5855,-2.6202,-2.6207,0,0,0,0,0,0,-2.5776,-2.578,-2.5892,-2.5894,-2.5788,-2.581,-2.5812,-2.5844,-2.5846,-2.5841,-2.5807,-2.5797,-2.5838,-2.5844,-2.5851,-2.6017,-2.585,-2.5856,-2.586,-2.6196,-2.6203,-2.6209,0,0,0,0,0,0,-2.5773,-2.5787,-2.5891,-2.5835,-2.5846,-2.5818,-2.5855,-2.5847,-2.5866,-2.5846,-2.584,-2.5832,-2.5834,-2.5843,-2.5938,-2.6016,-2.5859,-2.5864,-2.619,-2.6198,-2.6206,-2.6348,0,0,0,0,0,0,-2.5769,-2.5786,-2.584,-2.5837,-2.5849,-2.5978,-2.586,-2.5851,-2.5877,-2.5864,-2.5869,-2.5864,-2.583,-2.593,-2.5944,-2.6022,-2.5869,-2.6183,-2.6194,-2.6203,-2.6336,-2.636,-2.6381,0,0,0,0,0,-2.5764,-2.5879,-2.5843,-2.5857,-2.5915,-2.5983,-2.599,-2.5948,-2.5883,-2.5937,-2.5924,-2.5864,-2.6005,-2.594,-2.5956,-2.6036,-2.6178,-2.6191,-2.6203,-2.6327,-2.6356,-2.638,0,0,0,0,0,0,-2.5892,-2.5878,-2.5838,-2.5955,-2.5971,-2.5963,-2.6029,-2.598,-2.6015,-2.6002,-2.5948,-2.595,-2.6055,-2.6054,-2.5983,-2.6172,-2.608,-2.6096,-2.6169,-2.6197,-2.6218,-2.6217,-2.5874,0,0,0,0,0,-2.5934,-2.5989,-2.5974,-2.6079,-2.6089,-2.6058,-2.6085,-2.6052,-2.6066,-2.6072,-2.6066,-2.6083,-2.613,-2.6163,-2.6206,-2.6335,-2.6335,-2.6398,-2.642,-2.6438,-2.6454,-2.6522,-2.655,-2.625,-2.625,-2.625,0,0,-2.6021,-2.602,-2.6059,-2.6105,-2.6113,-2.6172,-2.6064,-2.6131,-2.6174,-2.6082,-2.6172,-2.6168,-2.6183,-2.6296,-2.6345,-2.6299,-2.6536,-2.6454,-2.6469,-2.6474,-2.6538,-2.6566,-2.6591,-2.6259,-2.6257,-2.6256,0,0,-2.6211,-2.6216,-2.6304,-2.6314,-2.6327,-2.6306,-2.6327,-2.6326,-2.632,-2.6409,-2.6341,-2.6391,-2.6475,-2.6488,-2.6506,-2.6699,-2.6646,-2.6715,-2.6831,-2.6899,-2.6922,-2.6943,-2.7013,-2.7039,-2.6729,-2.673,-2.673,0,-2.6319,-2.6404,-2.6356,-2.6427,-2.645,-2.6368,-2.6457,-2.6469,-2.6497,-2.6514,-2.6461,-2.6564,-2.6568,-2.6683,-2.673,-2.6747,-2.677,-2.6715,-2.6923,-2.6943,-2.6962,-2.7028,-2.7054,-2.6738,-2.6737,-2.6736,-2.6735,0,-2.6536,-2.6596,-2.6666,-2.6694,-2.6724,-2.6804,-2.6768,-2.6804,-2.6767,-2.6751,-2.6843,-2.6844,-2.6886,-2.691,-2.6875,-2.7021,-2.6991,-2.6932,-2.6838,-2.6999,-2.7061,-2.7086,-2.675,-2.6747,-2.6745,-2.6742,0,0,-2.6809,-2.6808,-2.6835,-2.6846,-2.6855,-2.6901,-2.6977,-2.7017,-2.7049,-2.707,-2.7133,-2.7205,-2.7149,-2.7169,-2.7135,-2.7194,-2.7348,-2.7126,-2.7126,-2.7169,-2.7509,-2.7555,-2.7585,-2.7312,-2.7316,-2.732,-2.7508,0,-2.6996,-2.7127,-2.7085,-2.7217,-2.7272,-2.7194,-2.7261,-2.7273,-2.726,-2.7305,-2.729,-2.7342,-2.7264,-2.7276,-2.7331,-2.7318,-2.7416,-2.7303,-2.7371,-2.7374,-2.7371,-2.7617,-2.7666,-2.7843,-2.7531,-2.7535,-2.7538,0,-2.7232,-2.7262,-2.74,-2.7399,-2.742,-2.7481,-2.7514,-2.7558,-2.757,-2.7556,-2.7578,-2.7531,-2.7606,-2.7511,-2.7613,-2.7538,-2.7562,-2.756,-2.7566,-2.7572,-2.7467,-2.7631,-2.7899,-2.7926,-2.7575,-2.7572,-2.757,0,-2.742,-2.7494,-2.7586,-2.7598,-2.7598,-2.7643,-2.7645,-2.7652,-2.7678,-2.7707,-2.7724,-2.7762,-2.7783,-2.7813,-2.7777,-2.7711,-2.7885,-2.7787,-2.7876,-2.7877,-2.7917,-2.7916,-2.8195,-2.7931,-2.7931,-2.793,-2.793,0,-2.7634,-2.7721,-2.767,-2.7727,-2.7823,-2.7773,-2.7869,-2.7862,-2.7869,-2.7923,-2.7858,-2.791,-2.7858,-2.7906,-2.7878,-2.7967,-2.7977,-2.7968,-2.796,-2.7975,-2.7976,-2.7992,-2.7979,-2.7937,-2.7936,-2.7935,-2.7933,0,-2.786,-2.7829,-2.7924,-2.7916,-2.7916,-2.7987,-2.798,-2.8032,-2.8013,-2.8083,-2.8096,-2.8067,-2.812,-2.8086,-2.8139,-2.812,-2.8237,-2.8211,-2.8234,-2.8227,-2.8319,-2.8311,-2.8618,-2.8656,-2.8368,-2.8371,-2.8373,0,-2.7999,-2.8065,-2.8063,-2.8095,-2.8101,-2.8153,-2.8179,-2.8132,-2.8163,-2.8181,-2.8232,-2.8278,-2.8313,-2.8401,-2.8385,-2.8425,-2.84,-2.8505,-2.8406,-2.8419,-2.8403,-2.84,-2.8406,-2.8526,-2.8529,-2.8532,-2.8534,0,-2.8251,-2.8232,-2.8273,-2.8309,-2.8342,-2.8368,-2.8389,-2.8418,-2.8371,-2.8409,-2.8461,-2.8488,-2.8542,-2.859,-2.8623,-2.8625,-2.8573,-2.8565,-2.8588,-2.8605,-2.8615,-2.8611,-2.829,-2.8559,-2.8556,-2.8554,-2.8553,-2.8552,-2.8438,-2.8493,-2.85,-2.8548,-2.8558,-2.8579,-2.8628,-2.8615,-2.8658,-2.8698,-2.8667,-2.873,-2.8739,-2.8779,-2.8787,-2.8835,-2.8793,-2.8826,-2.8835,-2.8844,-2.8857,-2.8606,-2.8841,-2.884,-2.884,-2.8839,-2.8839,0,-2.8687,-2.8687,-2.8732,-2.8763,-2.88,-2.8746,-2.8766,-2.8801,-2.8857,-2.887,-2.8905,-2.8966,-2.9011,-2.8998,-2.9039,-2.908,-2.9057,-2.9092,-2.9089,-2.9091,-2.8892,-2.8869,-2.911,-2.911,-2.911,-2.911,-2.911,-2.911,-2.8821,-2.891,-2.8892,-2.8986,-2.8986,-2.9047,-2.9063,-2.9082,-2.9092,-2.9162,-2.9199,-2.919,-2.9193,-2.9232,-2.9272,-2.9266,-2.9285,-2.933,-2.9316,-2.9131,-2.9105,-2.9079,-2.9057,-2.9334,-2.9334,-2.951,-2.9512,-2.9513]},{"header":{"parameterUnit":"m.s-1","parameterCategory":1,"la1":30.2991,"la2":30.254,"lo1":-89.0895,"lo2":-89.0444,"dy":0.0017,"dx":0.0017,"nx":28,"ny":28,"refTime":"2024-12-02T03:00:00:Z","depth":0,"parameterNumber":3,"parameterNumberName":"V-component_of_WINDS"},"data":[0,0,0,0,0,0,0,0,0,0,0,0,0,0,0,0,0,0,0,0,0,0,0,0,0,0,0,0,0,0,0,0,0,0,0,0,0,0,0,0,0,0,0,0,0,0,0,0,0,0,0,0,0,0,0,0,0,0,-5.0242,-5.0242,0,-5.0284,-5.0284,-5.0285,-5.0197,-5.0195,-5.0192,-5.0189,-5.0228,-5.0232,-5.0236,0,0,0,0,0,0,0,0,0,0,0,0,0,-5.0082,-5.0086,-5.0242,-5.0243,-5.0243,-5.0284,-5.0284,-5.0285,-5.0198,-5.0194,-5.0191,-5.0188,-5.0227,-5.0232,-5.0236,0,0,0,0,0,0,0,0,0,0,0,0,0,-5.0141,-5.0087,-5.0242,-5.0205,-5.0202,-5.0284,-5.0284,-5.0285,-5.0199,-5.0194,-5.019,-5.0186,-5.0226,-5.0231,-5.0237,-5.0356,0,0,-5.0254,-5.0256,0,0,0,0,0,0,0,0,-5.0137,-5.0146,-5.021,-5.0207,-5.0204,-5.0231,-5.0242,-5.0309,-5.02,-5.02,-5.0189,-5.0184,-5.0233,-5.0237,-5.0254,-5.0357,-5.0359,-5.0254,-5.0257,-5.026,-5.0261,0,0,0,0,0,0,0,-5.0133,-5.0144,-5.0258,-5.0211,-5.0207,-5.0184,-5.0188,-5.0254,-5.0239,-5.0199,-5.0193,-5.02,-5.023,-5.0249,-5.0255,-5.036,-5.0254,-5.0259,-5.0262,-5.0264,-5.0561,-5.0565,0,0,0,0,0,0,-5.0135,-5.0141,-5.0257,-5.026,-5.016,-5.0191,-5.0195,-5.0227,-5.0238,-5.0236,-5.0203,-5.0195,-5.0242,-5.0248,-5.0256,-5.0394,-5.026,-5.0265,-5.0268,-5.0556,-5.0562,-5.0566,0,0,0,0,0,0,-5.0132,-5.0146,-5.0255,-5.0199,-5.0211,-5.0198,-5.0235,-5.023,-5.0249,-5.0241,-5.0238,-5.0226,-5.0239,-5.0248,-5.0331,-5.0395,-5.0267,-5.0272,-5.0551,-5.0558,-5.0564,-5.0674,0,0,0,0,0,0,-5.0127,-5.0145,-5.0192,-5.0201,-5.0214,-5.0332,-5.0239,-5.0234,-5.0259,-5.0249,-5.0261,-5.0259,-5.0236,-5.0323,-5.0337,-5.04,-5.0277,-5.0545,-5.0554,-5.0562,-5.0665,-5.0684,-5.07,0,0,0,0,0,-5.0122,-5.022,-5.0194,-5.0209,-5.0272,-5.0336,-5.0343,-5.0316,-5.0264,-5.031,-5.0305,-5.0259,-5.0386,-5.0333,-5.0347,-5.0413,-5.0541,-5.0551,-5.0561,-5.0657,-5.068,-5.07,0,0,0,0,0,0,-5.0218,-5.0221,-5.0192,-5.0297,-5.0317,-5.0321,-5.0378,-5.0342,-5.0376,-5.0365,-5.0328,-5.0332,-5.0422,-5.0426,-5.0367,-5.0528,-5.0454,-5.0468,-5.0522,-5.0544,-5.0562,-5.0558,-5.0281,0,0,0,0,0,-5.0252,-5.0304,-5.0303,-5.0396,-5.0407,-5.0391,-5.0418,-5.0395,-5.0414,-5.0421,-5.0422,-5.0441,-5.0485,-5.0515,-5.0555,-5.0665,-5.0665,-5.0717,-5.0735,-5.0749,-5.0761,-5.0818,-5.0841,-5.06,-5.06,-5.06,0,0,-5.0321,-5.0329,-5.0365,-5.0415,-5.0428,-5.0482,-5.0399,-5.046,-5.0499,-5.043,-5.0509,-5.0511,-5.0529,-5.0626,-5.0669,-5.0632,-5.0828,-5.0763,-5.0774,-5.0778,-5.0831,-5.0854,-5.0874,-5.0607,-5.0606,-5.0605,0,0,-5.0475,-5.0487,-5.0565,-5.0579,-5.06,-5.0589,-5.0607,-5.0617,-5.0616,-5.0695,-5.0644,-5.0689,-5.0766,-5.0781,-5.0799,-5.0958,-5.0916,-5.0972,-5.1064,-5.112,-5.1139,-5.1155,-5.1211,-5.1231,-5.0984,-5.0984,-5.0984,0,-5.0558,-5.0639,-5.0609,-5.0673,-5.0696,-5.0638,-5.0715,-5.073,-5.0763,-5.0779,-5.0738,-5.0832,-5.0841,-5.094,-5.0978,-5.0995,-5.1014,-5.097,-5.1139,-5.1155,-5.117,-5.1222,-5.1244,-5.099,-5.099,-5.0989,-5.0988,0,-5.0739,-5.0796,-5.0856,-5.089,-5.092,-5.099,-5.0969,-5.1003,-5.0977,-5.097,-5.1049,-5.1058,-5.1098,-5.112,-5.1095,-5.1215,-5.1191,-5.1145,-5.107,-5.12,-5.1249,-5.1268,-5.1,-5.0997,-5.0995,-5.0994,0,0,-5.0955,-5.0971,-5.0994,-5.1008,-5.1026,-5.1069,-5.1136,-5.1176,-5.1205,-5.1229,-5.1283,-5.1349,-5.1306,-5.1327,-5.1303,-5.1352,-5.1476,-5.1299,-5.1299,-5.1331,-5.1607,-5.1641,-5.1665,-5.1449,-5.1452,-5.1455,-5.1605,0,-5.1107,-5.1224,-5.1198,-5.1312,-5.1363,-5.1308,-5.1366,-5.1383,-5.1377,-5.1418,-5.1411,-5.1458,-5.1399,-5.1411,-5.1457,-5.1451,-5.1531,-5.144,-5.1497,-5.15,-5.1494,-5.169,-5.1727,-5.1867,-5.1624,-5.1627,-5.1629,0,-5.1299,-5.1332,-5.1451,-5.1461,-5.1481,-5.1534,-5.1568,-5.1609,-5.1626,-5.1618,-5.1641,-5.1607,-5.1672,-5.1597,-5.1685,-5.1624,-5.1646,-5.1647,-5.1651,-5.1655,-5.1572,-5.1698,-5.1912,-5.1932,-5.1659,-5.1657,-5.1655,0,-5.1443,-5.1517,-5.1597,-5.1611,-5.1624,-5.1662,-5.1669,-5.1682,-5.1708,-5.1737,-5.1753,-5.179,-5.1809,-5.1838,-5.1814,-5.1762,-5.1905,-5.1829,-5.1899,-5.19,-5.1931,-5.1929,-5.215,-5.1947,-5.1947,-5.1947,-5.1946,0,-5.1615,-5.169,-5.1662,-5.1712,-5.1793,-5.1763,-5.1844,-5.1844,-5.1856,-5.1904,-5.1858,-5.1903,-5.187,-5.1912,-5.1894,-5.1968,-5.1978,-5.1972,-5.1966,-5.1976,-5.1976,-5.1989,-5.1978,-5.1952,-5.1951,-5.195,-5.1949,0,-5.1789,-5.1774,-5.1858,-5.1863,-5.1866,-5.1926,-5.193,-5.1975,-5.1966,-5.2027,-5.2039,-5.2024,-5.2071,-5.2051,-5.21,-5.2088,-5.2184,-5.2165,-5.2178,-5.2173,-5.2244,-5.2237,-5.248,-5.2509,-5.2289,-5.2291,-5.2293,0,-5.1899,-5.1955,-5.1967,-5.1996,-5.2006,-5.2054,-5.208,-5.2051,-5.2079,-5.2103,-5.2145,-5.2188,-5.2221,-5.2298,-5.2291,-5.2328,-5.231,-5.2392,-5.2315,-5.2322,-5.2309,-5.2306,-5.2311,-5.2407,-5.241,-5.2412,-5.2414,0,-5.2095,-5.2085,-5.2124,-5.2161,-5.2194,-5.2221,-5.2244,-5.227,-5.2243,-5.2277,-5.2325,-5.235,-5.2401,-5.2443,-5.2476,-5.2481,-5.2443,-5.2438,-5.2456,-5.2466,-5.2471,-5.2468,-5.2219,-5.2433,-5.2431,-5.2429,-5.2428,-5.2428,-5.224,-5.2287,-5.2302,-5.2347,-5.2362,-5.2385,-5.2427,-5.2424,-5.2464,-5.2503,-5.2483,-5.2539,-5.2553,-5.2593,-5.2603,-5.2645,-5.2612,-5.2639,-5.2645,-5.2652,-5.2661,-5.2465,-5.2651,-5.265,-5.265,-5.2649,-5.2649,0,-5.2432,-5.244,-5.2482,-5.2516,-5.2551,-5.2513,-5.2537,-5.2568,-5.2618,-5.2635,-5.2668,-5.2723,-5.2764,-5.276,-5.2798,-5.2832,-5.2815,-5.2842,-5.2839,-5.2841,-5.2689,-5.2669,-5.2855,-5.2855,-5.2855,-5.2855,-5.2855,-5.2855,-5.2537,-5.2614,-5.2605,-5.2689,-5.2695,-5.275,-5.2766,-5.2786,-5.28,-5.2863,-5.2897,-5.2895,-5.2903,-5.2941,-5.2976,-5.2974,-5.2989,-5.3023,-5.3014,-5.2872,-5.2851,-5.2832,-5.2813,-5.3027,-5.3027,-5.3162,-5.3164,-5.3165]}]]